Observations
| Time | Sensor | AQI | SAQ | Temp °C | Hum % | Pres Pa | CO μg/m³ | H₂S μg/m³ | NO μg/m³ | NO₂ μg/m³ | O₃ μg/m³ | SO₂ μg/m³ | CO₂e PPM | VOC PPM | PM1 μg/m³ | PM2.5 μg/m³ | PM4 μg/m³ | PM10 μg/m³ | TPS µm |
|---|---|---|---|---|---|---|---|---|---|---|---|---|---|---|---|---|---|---|---|
| Wednesday 12 August 2026 | |||||||||||||||||||
| 22:56 | Trim Market St | 3 | 24.6 | 52 | 56,095 | 0 | 0 | 0.91 | 15.58 | 69.95 | 0 | 2.85 | 4.91 | 6.06 | |||||
| 22:55 | Trim Patrick St | 3 | 24 | 55 | 69,677 | 0 | 9.97 | 0.92 | 19.38 | 54.32 | 6.39 | 6.29 | 10.58 | 11.64 | |||||
| 22:54 | Trim Patrick St | 3 | 24 | 55 | 69,654 | 0 | 12.04 | 0.94 | 23.24 | 54.29 | 7.15 | 3.71 | 9.09 | 10 | |||||
| 22:54 | Trim Market St | 3 | 24.6 | 52 | 56,045 | 0 | 0 | 0.92 | 16.56 | 72.86 | 0 | 1.43 | 4.4 | 5.33 | |||||
| 22:53 | Trim Patrick St | 3 | 24 | 55 | 69,622 | 0 | 12.12 | 0.92 | 25.86 | 55.6 | 6.63 | 3.71 | 8.36 | 9.19 | |||||
| 22:52 | Trim Patrick St | 3 | 24 | 55 | 69,638 | 0 | 13.07 | 0.92 | 25.38 | 60.52 | 7.23 | 3.71 | 8.36 | 9.2 | |||||
| 22:51 | Trim Patrick St | 3 | 24 | 55 | 69,636 | 0 | 12.41 | 0.9 | 26.87 | 53.6 | 6.73 | 4.57 | 9.83 | 10.82 | |||||
| 22:50 | Trim Patrick St | 3 | 24.1 | 55 | 69,632 | 0 | 11.4 | 0.91 | 24.82 | 58.52 | 7.58 | 5.43 | 11.38 | 12.51 | |||||
| 22:49 | Trim Patrick St | 3 | 24.1 | 55 | 69,628 | 0 | 12.96 | 0.91 | 23.59 | 57.06 | 7.48 | 4.57 | 9.1 | 10.01 | |||||
| 22:48 | Trim Patrick St | 3 | 24.1 | 54 | 69,622 | 0 | 12.94 | 0.92 | 22.06 | 53.2 | 7.26 | 4.57 | 9.14 | 10.06 | |||||
| 22:47 | Trim Patrick St | 3 | 24.1 | 55 | 69,612 | 0 | 12.56 | 0.91 | 29.24 | 55.99 | 7.13 | 5.43 | 9.85 | 10.83 | |||||
| 22:46 | Trim Patrick St | 3 | 24.1 | 54 | 69,597 | 0 | 13.44 | 0.93 | 25.34 | 54 | 7.35 | 4.57 | 9.9 | 10.89 | |||||
| 22:45 | Trim Patrick St | 3 | 24.2 | 55 | 69,579 | 0 | 13.59 | 0.92 | 27.25 | 57.16 | 7.59 | 4.57 | 9.12 | 10.04 | |||||
| 22:44 | Trim Market St | 3 | 24.8 | 52 | 55,999 | 0 | 0 | 0.88 | 21.22 | 63.88 | 0 | 2.14 | 3.91 | 4.59 | |||||
| 22:44 | Trim Patrick St | 3 | 24.2 | 55 | 69,583 | 0 | 12.59 | 0.9 | 31.47 | 50.39 | 7.29 | 5.43 | 9.88 | 10.87 | |||||
| 22:43 | Trim Market St | 3 | 24.8 | 52 | 55,949 | 0 | 0 | 0.89 | 18.74 | 66.84 | 0 | 0.71 | 2.89 | 3.12 | |||||
| 22:43 | Trim Patrick St | 3 | 24.2 | 55 | 69,587 | 0 | 12.61 | 0.91 | 22.74 | 56.47 | 7.47 | 6.29 | 11.39 | 12.53 | |||||
| 22:42 | Trim Market St | 3 | 24.8 | 52 | 55,952 | 0 | 0 | 0.89 | 19.82 | 71.13 | 0 | 1.43 | 3.92 | 6.79 | |||||
| 22:42 | Trim Patrick St | 3 | 24.2 | 55 | 69,595 | 0 | 13.14 | 0.9 | 23.72 | 57.86 | 7.5 | 4.57 | 9.12 | 10.03 | |||||
| 22:41 | Trim Patrick St | 3 | 24.2 | 54 | 69,575 | 0 | 13.81 | 0.92 | 26.85 | 57.77 | 7.78 | 4.57 | 10.67 | 11.73 | |||||